| time (UTC) | temp F | wind direction | speed knots | gust knots | rain 1hr in | rain 24hr in | rain mn in | humidity % | barometer mb |
| 20260504023535 | 62 | 328 | 3.5 | 7.8 | 0.00 | 0.00 | 0.00 | 95 | 1013.8 |
| 20260504022523 | 62 | 324 | 3.5 | 7.8 | 0.00 | 0.00 | 0.00 | 94 | 1014.1 |
| 20260504021533 | 63 | 325 | 3.5 | 7.0 | 0.00 | 0.00 | 0.00 | 95 | 1014.2 |
| 20260504020522 | 62 | 315 | 3.5 | 8.7 | 0.00 | 0.00 | 0.00 | 96 | 1014.4 |
| 20260504015530 | 62 | 300 | 3.5 | 7.8 | 0.00 | 0.00 | 0.00 | 96 | 1014.6 |
| 20260504014519 | 62 | 326 | 3.5 | 10.4 | 0.00 | 0.00 | 0.00 | 96 | 1014.7 |
| 20260504013527 | 62 | 346 | 2.6 | 5.2 | 0.00 | 0.00 | 0.00 | 95 | 1014.7 |
| 20260504012516 | 62 | 324 | 4.3 | 9.6 | 0.00 | 0.00 | 0.00 | 96 | 1014.9 |
| 20260504011526 | 62 | 318 | 4.3 | 9.6 | 0.00 | 0.00 | 0.00 | 96 | 1015.1 |
| 20260504010536 | 62 | 321 | 4.3 | 8.7 | 0.00 | 0.00 | 0.00 | 96 | 1015.1 |
| 20260504005530 | 62 | 337 | 6.1 | 14.8 | 0.00 | 0.00 | 0.00 | 96 | 1015.0 |
| 20260504004533 | 62 | 328 | 4.3 | 9.6 | 0.00 | 0.00 | 0.00 | 96 | 1015.0 |
| 20260504003521 | 62 | 342 | 5.2 | 11.3 | 0.00 | 0.00 | 0.00 | 96 | 1015.2 |
| 20260504002531 | 62 | 339 | 6.1 | 12.2 | 0.00 | 0.00 | 0.00 | 96 | 1015.3 |
| 20260504001519 | 62 | 335 | 6.1 | 11.3 | 0.00 | 0.00 | 0.00 | 96 | 1015.2 |
| 20260504000529 | 62 | 348 | 7.0 | 13.9 | 0.00 | 0.00 | 0.00 | 96 | 1015.1 |
| 20260503235537 | 62 | 347 | 6.1 | 14.8 | 0.00 | 0.00 | 0.00 | 97 | 1015.1 |
| 20260503234525 | 62 | 347 | 7.8 | 15.6 | 0.00 | 0.00 | 0.00 | 98 | 1014.9 |
| 20260503233535 | 62 | 336 | 7.0 | 18.2 | 0.00 | 0.00 | 0.00 | 98 | 1015.2 |
| 20260503232531 | 62 | 329 | 6.1 | 11.3 | 0.00 | 0.00 | 0.00 | 98 | 1015.1 |
| 20260503231534 | 62 | 354 | 5.2 | 12.2 | 0.00 | 0.00 | 0.00 | 98 | 1015.5 |
| 20260503230522 | 62 | 325 | 4.3 | 11.3 | 0.00 | 0.00 | 0.00 | 98 | 1015.2 |
| 20260503225531 | 62 | 360 | 5.2 | 12.2 | 0.00 | 0.00 | 0.00 | 98 | 1015.1 |
| 20260503224521 | 62 | 348 | 4.3 | 8.7 | 0.00 | 0.00 | 0.00 | 98 | 1015.2 |
| 20260503223529 | 62 | 355 | 4.3 | 9.6 | 0.00 | 0.00 | 0.00 | 98 | 1015.1 |
| 20260503222517 | 62 | 3 | 4.3 | 11.3 | 0.00 | 0.00 | 0.00 | 98 | 1014.9 |
| 20260503221533 | 62 | 3 | 4.3 | 9.6 | 0.00 | 0.00 | 0.00 | 98 | 1014.9 |
| 20260503220534 | 62 | 4 | 3.5 | 7.8 | 0.00 | 0.00 | 0.00 | 98 | 1015.0 |
| 20260503215523 | 62 | 9 | 3.5 | 7.0 | 0.00 | 0.00 | 0.00 | 98 | 1015.1 |
| 20260503214533 | 62 | 0 | 2.6 | 6.1 | 0.00 | 0.00 | 0.00 | 98 | 1015.0 |
| 20260503213528 | 62 | 353 | 2.6 | 5.2 | 0.00 | 0.00 | 0.00 | 98 | 1014.9 |
| 20260503212537 | 62 | 9 | 2.6 | 8.7 | 0.00 | 0.00 | 0.00 | 98 | 1014.7 |
| 20260503211525 | 62 | 6 | 3.5 | 7.0 | 0.00 | 0.00 | 0.00 | 98 | 1014.6 |
| 20260503210527 | 62 | 9 | 2.6 | 7.0 | 0.00 | 0.00 | 0.00 | 98 | 1014.6 |
| 20260503205537 | 62 | 8 | 2.6 | 7.0 | 0.00 | 0.00 | 0.00 | 98 | 1014.6 |
| 20260503204525 | 62 | 3 | 2.6 | 5.2 | 0.00 | 0.00 | 0.00 | 98 | 1014.6 |
| 20260503203535 | 62 | 0 | 2.6 | 5.2 | 0.00 | 0.00 | 0.00 | 98 | 1014.4 |
| 20260503202524 | 62 | 1 | 3.5 | 7.8 | 0.00 | 0.00 | 0.00 | 98 | 1014.3 |
| 20260503201532 | 62 | 19 | 2.6 | 5.2 | 0.00 | 0.00 | 0.00 | 98 | 1014.3 |
| 20260503200521 | 62 | 2 | 2.6 | 5.2 | 0.00 | 0.00 | 0.00 | 98 | 1014.4 |
| 20260503195537 | 62 | 15 | 1.7 | 4.3 | 0.00 | 0.00 | 0.00 | 98 | 1014.4 |
| 20260503194533 | 61 | 1 | 1.7 | 4.3 | 0.00 | 0.00 | 0.00 | 98 | 1014.4 |
| 20260503193529 | 61 | 30 | 0.9 | 2.6 | 0.00 | 0.00 | 0.00 | 98 | 1014.4 |
| 20260503192518 | 61 | 4 | 1.7 | 4.3 | 0.00 | 0.00 | 0.00 | 98 | 1014.4 |
| 20260503191527 | 61 | 330 | 1.7 | 3.5 | 0.00 | 0.00 | 0.00 | 98 | 1014.6 |
| 20260503190537 | 61 | 354 | 0.9 | 3.5 | 0.00 | 0.00 | 0.00 | 98 | 1014.6 |
| 20260503185539 | 61 | 1 | 1.7 | 4.3 | 0.00 | 0.00 | 0.00 | 98 | 1014.8 |
| 20260503184534 | 62 | 9 | 1.7 | 3.5 | 0.00 | 0.00 | 0.00 | 98 | 1014.8 |
| 20260503183529 | 62 | 350 | 0.9 | 2.6 | 0.00 | 0.00 | 0.00 | 98 | 1014.8 |
| 20260503182537 | 62 | 333 | 0.9 | 5.2 | 0.00 | 0.00 | 0.00 | 98 | 1015.1 |
| 20260503181519 | 62 | 351 | 1.7 | 5.2 | 0.00 | 0.00 | 0.00 | 98 | 1015.0 |
| 20260503180529 | 62 | 318 | 1.7 | 4.3 | 0.00 | 0.00 | 0.00 | 98 | 1015.1 |
| 20260503175517 | 62 | 343 | 1.7 | 5.2 | 0.00 | 0.00 | 0.00 | 98 | 1015.2 |
| 20260503174526 | 62 | 342 | 2.6 | 6.1 | 0.00 | 0.00 | 0.00 | 98 | 1015.2 |
| 20260503173535 | 62 | 0 | 1.7 | 5.2 | 0.00 | 0.00 | 0.00 | 98 | 1015.2 |
| 20260503172523 | 62 | 17 | 2.6 | 5.2 | 0.00 | 0.00 | 0.00 | 98 | 1015.1 |
| 20260503171532 | 62 | 12 | 2.6 | 5.2 | 0.00 | 0.00 | 0.00 | 98 | 1015.1 |
| 20260503170521 | 62 | 360 | 3.5 | 6.1 | 0.00 | 0.00 | 0.00 | 98 | 1015.5 |
| 20260503150527 | 62 | 346 | 3.5 | 8.7 | 0.00 | 0.00 | 0.00 | 97 | 1016.7 |
| 20260503130535 | 63 | 41 | 0.9 | 3.5 | 0.00 | 0.00 | 0.00 | 96 | 1017.3 |
| 20260503110527 | 63 | 98 | 1.7 | 3.5 | 0.00 | 0.00 | 0.00 | 95 | 1017.4 |
| 20260503081532 | 65 | 335 | 4.3 | 9.6 | 0.00 | 0.00 | 0.00 | 90 | 1018.0 |
| 20260503080521 | 65 | 293 | 3.5 | 7.0 | 0.00 | 0.00 | 0.00 | 89 | 1017.8 |
| 20260503072516 | 65 | 358 | 0.9 | 1.7 | 0.00 | 0.00 | 0.00 | 90 | 1017.2 |
| 20260503071532 | 66 | 18 | 1.7 | 2.6 | 0.00 | 0.00 | 0.00 | 90 | 1017.3 |
| 20260503070536 | 66 | 324 | 3.5 | 6.1 | 0.00 | 0.00 | 0.00 | 89 | 1017.4 |
| 20260503054526 | 70 | 169 | 1.7 | 3.5 | 0.00 | 0.00 | 0.00 | 72 | 1017.5 |
| 20260503053536 | 71 | 204 | 1.7 | 2.6 | 0.00 | 0.00 | 0.00 | 67 | 1017.5 |
| 20260503052524 | 71 | 28 | 0.9 | 1.7 | 0.00 | 0.00 | 0.00 | 68 | 1017.5 |
| 20260503051532 | 71 | 208 | 0.9 | 1.7 | 0.00 | 0.00 | 0.00 | 67 | 1017.6 |
| 20260503050522 | 71 | 256 | 0.9 | 1.7 | 0.00 | 0.00 | 0.00 | 65 | 1017.8 |
| 20260503045530 | 72 | 213 | 1.7 | 3.5 | 0.00 | 0.00 | 0.00 | 65 | 1017.8 |
| 20260503044520 | 70 | 316 | 3.5 | 6.1 | 0.00 | 0.00 | 0.00 | 67 | 1018.0 |
| 20260503043528 | 70 | 360 | 1.7 | 3.5 | 0.00 | 0.00 | 0.00 | 71 | 1018.0 |
| 20260503042538 | 69 | 353 | 1.7 | 3.5 | 0.00 | 0.00 | 0.00 | 74 | 1017.9 |
| 20260503041525 | 70 | 342 | 3.5 | 7.0 | 0.00 | 0.00 | 0.00 | 70 | 1018.0 |
| 20260503040535 | 71 | 339 | 4.3 | 7.0 | 0.00 | 0.00 | 0.00 | 64 | 1018.1 |
| 20260503035523 | 72 | 327 | 5.2 | 8.7 | 0.00 | 0.00 | 0.00 | 62 | 1018.1 |
| 20260503034532 | 72 | 337 | 6.1 | 10.4 | 0.00 | 0.00 | 0.00 | 61 | 1018.2 |
| 20260503033521 | 73 | 319 | 6.1 | 12.2 | 0.00 | 0.00 | 0.00 | 59 | 1018.2 |
| 20260503032529 | 71 | 328 | 1.7 | 5.2 | 0.00 | 0.00 | 0.00 | 64 | 1018.5 |
| 20260503031518 | 71 | 341 | 4.3 | 7.8 | 0.00 | 0.00 | 0.00 | 63 | 1018.7 |
| 20260503030528 | 70 | 337 | 2.6 | 7.0 | 0.00 | 0.00 | 0.00 | 65 | 1018.8 |
| 20260503025534 | 69 | 323 | 2.6 | 5.2 | 0.00 | 0.00 | 0.00 | 69 | 1019.0 |
| 20260503024521 | 68 | 206 | 2.6 | 5.2 | 0.00 | 0.00 | 0.00 | 70 | 1019.1 |